GSAT0101 (GALILEO-PFM) 1 37846U 11060A 26194.24470205 -.00000093 00000+0 00000+0 0 9993 2 37846 56.9850 341.0553 0002286 61.5340 298.4760 1.70475537 91567 GSAT0102 (GALILEO-FM2) 1 37847U 11060B 26193.00368770 -.00000088 00000+0 00000+0 0 9994 2 37847 56.9863 341.0894 0002305 10.3981 353.6194 1.70475812 91555 GSAT0103 (GALILEO-FM3) 1 38857U 12055A 26194.28553299 -.00000030 00000+0 00000+0 0 9991 2 38857 55.8215 100.8292 0003756 311.8113 48.1723 1.70473329 85453 GSAT0201 (GALILEO 5) 1 40128U 14050A 26193.74924645 -.00000015 00000+0 00000+0 0 9992 2 40128 48.8466 272.3871 1678293 180.4210 179.4845 1.85519397 78792 GSAT0202 (GALILEO 6) 1 40129U 14050B 26194.54367933 -.00000015 00000+0 00000+0 0 9993 2 40129 48.8636 271.4401 1679516 181.1312 178.5019 1.85520462 80972 GSAT0203 (GALILEO 7) 1 40544U 15017A 26194.60901044 -.00000095 00000+0 00000+0 0 9990 2 40544 56.7775 340.8763 0002599 256.4303 103.5271 1.70476127 69655 GSAT0204 (GALILEO 8) 1 40545U 15017B 26194.86487459 -.00000096 00000+0 00000+0 0 9999 2 40545 56.7839 340.8880 0002751 234.6933 125.2670 1.70475628 32709 GSAT0206 (GALILEO 10) 1 40890U 15045B 26191.33403541 .00000090 00000+0 00000+0 0 9995 2 40890 54.9400 220.9648 0002065 329.8405 30.2271 1.70473539 67434 GSAT0209 (GALILEO 12) 1 41174U 15079A 26193.84863323 -.00000031 00000+0 00000+0 0 9990 2 41174 55.8417 100.5578 0004913 351.6922 8.3136 1.70473633 65219 GSAT0208 (GALILEO 11) 1 41175U 15079B 26194.06902902 -.00000030 00000+0 00000+0 0 9992 2 41175 55.8391 100.5488 0004537 14.0255 346.0022 1.70473434 65633 GSAT0211 (GALILEO 14) 1 41549U 16030A 26194.19266485 .00000077 00000+0 00000+0 0 9998 2 41549 55.0900 220.9791 0003358 318.4199 41.6297 1.70473671 63114 GSAT0210 (GALILEO 13) 1 41550U 16030B 26194.44991027 .00000075 00000+0 00000+0 0 9993 2 41550 55.0890 220.9702 0004705 245.6876 114.3369 1.70473836 63117 GSAT0207 (GALILEO 15) 1 41859U 16069A 26192.96868882 -.00000030 00000+0 00000+0 0 9996 2 41859 55.5126 100.4004 0004522 339.9754 20.0172 1.70473524 59824 GSAT0212 (GALILEO 16) 1 41860U 16069B 26193.99526782 -.00000031 00000+0 00000+0 0 9993 2 41860 55.5113 100.3671 0004362 10.9612 349.0630 1.70473652 60098 GSAT0213 (GALILEO 17) 1 41861U 16069C 26194.36243565 -.00000031 00000+0 00000+0 0 9991 2 41861 55.5134 100.3648 0004126 318.6741 41.3115 1.70474037 59967 GSAT0214 (GALILEO 18) 1 41862U 16069D 26193.92212601 -.00000031 00000+0 00000+0 0 9990 2 41862 55.5118 100.3696 0003294 332.9460 27.0511 1.70473654 60085 GSAT0215 (GALILEO 19) 1 43055U 17079A 26192.06539411 .00000090 00000+0 00000+0 0 9997 2 43055 55.0682 220.8492 0003697 267.9007 92.1373 1.70474334 53396 GSAT0216 (GALILEO 20) 1 43056U 17079B 26194.70284229 .00000073 00000+0 00000+0 0 9996 2 43056 55.0682 220.7766 0004872 277.2094 82.8068 1.70474451 53450 GSAT0217 (GALILEO 21) 1 43057U 17079C 26194.33707142 .00000076 00000+0 00000+0 0 9993 2 43057 55.0666 220.7845 0005106 288.0237 71.9947 1.70474139 53437 GSAT0218 (GALILEO 22) 1 43058U 17079D 26192.79741165 .00000087 00000+0 00000+0 0 9997 2 43058 55.0670 220.8245 0005348 274.4620 85.5568 1.70474392 53432 GSAT0221 (GALILEO 25) 1 43564U 18060A 26194.46121759 -.00000094 00000+0 00000+0 0 9996 2 43564 57.1602 341.0717 0002646 286.2656 73.6918 1.70476034 49617 GSAT0222 (GALILEO 26) 1 43565U 18060B 26192.92116441 -.00000087 00000+0 00000+0 0 9990 2 43565 57.1642 341.1170 0002730 235.5377 124.4270 1.70475789 49631 GSAT0219 (GALILEO 23) 1 43566U 18060C 26194.31518514 -.00000093 00000+0 00000+0 0 9990 2 43566 57.1630 341.0808 0001811 299.7576 60.2111 1.70476015 49632 GSAT0220 (GALILEO 24) 1 43567U 18060D 26194.53619194 -.00000094 00000+0 00000+0 0 9992 2 43567 57.1625 341.0748 0002129 291.2422 68.7213 1.70475652 49621 GSAT0223 (GALILEO 27) 1 49809U 21116A 26193.80162081 -.00000091 00000+0 00000+0 0 9997 2 49809 57.1512 340.9841 0002430 195.8611 164.1379 1.70475864 28612 GSAT0224 (GALILEO 28) 1 49810U 21116B 26194.50046551 -.00000094 00000+0 00000+0 0 9993 2 49810 57.1519 340.9637 0001862 181.9105 359.6169 1.70475939 28651 GSAT0225 (GALILEO 29) 1 59598U 24079A 26193.92364229 -.00000032 00000+0 00000+0 0 9990 2 59598 55.1342 100.3610 0000576 333.1665 207.5558 1.70473595 13753 GSAT0227 (GALILEO 30) 1 59600U 24079C 26194.98582021 -.00000030 00000+0 00000+0 0 9991 2 59600 55.1303 100.3294 0002845 67.2681 292.7822 1.70473814 13828 GSAT0232 (GALILEO 32) 1 61182U 24167A 26194.16550859 .00000078 00000+0 00000+0 0 9992 2 61182 55.1798 220.6008 0006491 230.8741 201.3532 1.70473982 11322 GSAT0226 (GALILEO 31) 1 61183U 24167B 26193.31376557 .00000085 00000+0 00000+0 0 9998 2 61183 55.1789 220.6314 0003219 234.7446 126.0816 1.70473923 11281 GSAT0233 (GALILEO 33) 1 67160U 25302A 26195.03920553 -.00000031 00000+0 00000+0 0 9995 2 67160 54.3495 101.3657 0000880 156.8538 279.4262 1.70473741 3589 GSAT0234 (GALILEO 34) 1 67162U 25302C 26192.55778705 -.00000030 00000+0 00000+0 0 9990 2 67162 54.3508 101.4360 0002156 317.4765 216.0018 1.70473738 3596